Regional Weather Roundup
Issued by NWS

Home | Current Version | Previous Version | Graphics & Text | Print | Product List | Glossary On
Versions: 1 2 3 4 5 6 7 8 9 10 11 12 13 14 15 16 17 18 19 20 21 22 23 24 25 26 27 28 29 30 31 32 33 34 35 36 37 38 39 40 41 42 43 44 45 46 47 48 49 50
000
ASUS43 KMPX 251910
RWRMN
WEATHER ROUNDUP FOR MINNESOTA
NATIONAL WEATHER SERVICE TWIN CITIES/CHANHASSEN MN
200 PM CDT WED APR 25 2018


NOTE: "FAIR" INDICATES FEW OR NO CLOUDS BELOW 12,000 FEET WITH NO
SIGNIFICANT WEATHER AND/OR OBSTRUCTIONS TO VISIBILITY. N/A MEANS
CURRENT SKY AND/OR WEATHER CONDITIONS ARE NOT AVAILABLE.

MNZ060>063-068>070-252000-
   Twin Cities Metro

CITY           SKY/WX    TMP DP  RH WIND       PRES   REMARKS
TWIN CITIES    FAIR      56  24  29 VRB3      30.15F
ST PAUL        FAIR      55  24  30 N6        30.15F
CRYSTAL        FAIR      54  24  31 VRB3      30.14F
BLAINE         SUNNY     55  25  30 NW6       30.15F
LAKEVILLE      FAIR      55  27  33 NW5       30.14F
EDEN PRAIRIE   FAIR      55  27  34 MISG      30.14F
SOUTH ST PAUL  FAIR      55  23  28 N8        30.14F
LAKE ELMO      FAIR      54  30  40 NW5       30.16F
$$
MNZ001>005-007-008-013>017-022>024-027-028-252000-
   Northwest Minnesota

CITY           SKY/WX    TMP DP  RH WIND       PRES   REMARKS
BEMIDJI        FAIR      58  25  28 SW15      30.05F
HALLOCK        FAIR      66  25  20 SW26G33   29.91F
ROSEAU         FAIR      61  41  48 SW18G28   29.95F
WARROAD        FAIR      61  39  44 SW17G29   29.96F
THIEF RVR FALL FAIR      59  36  42 SW20G31   30.01F
CROOKSTON      FAIR      61  37  41 SW23G29   30.02F
FOSSTON        FAIR      57  34  41 SW22G31   30.06F
DETROIT LAKES  FAIR      55  32  41 SW14      30.09F
MOORHEAD       FAIR      61  28  29 SW17      30.07F
PARK RAPIDS    FAIR      57  25  29 SW9G18    30.09F
MAHNOMEN       FAIR      57  33  39 SW18G28   30.07F
$$
MNZ006-009>011-018-025>026-252000-
   North Central Minnesota

CITY           SKY/WX    TMP DP  RH WIND       PRES   REMARKS
BAUDETTE       FAIR      61  32  33 SW17G31   29.97F
FLAG ISLAND    FAIR      43  30  61 S16       29.93F
INTL FALLS     FAIR      59  25  27 SW8G22    30.00F
WASKISH        PTSUNNY   52  32  46 W10       30.03F
BIG FORK       FAIR      59  28  31 S9        30.05F
LONGVILLE      FAIR      55  25  30 S8        30.09F
GRAND RAPIDS   FAIR      55  24  30 SW10      30.10F
CRANE LAKE     FAIR      54  21  28 SW7       30.06F
ORR            FAIR      57  18  21 S5        30.02
COOK           FAIR      55  25  30 SW7       30.06F
WALKER         FAIR      56  26  31 SW10G17   30.08F
$$
MNZ012-019>021-037-252000-
   Northeast Minnesota

CITY           SKY/WX    TMP DP  RH WIND       PRES   REMARKS
DULUTH         FAIR      53  26  35 SW7       30.09F
ELY              N/A    N/A N/A N/A MISG        N/A
HIBBING        FAIR      54  21  27 VRB7      30.07F
EVELETH        FAIR      54  22  28 SW9       30.09F
DULUTH HARBOR  FAIR      39  32  75 NE5       30.13F
TWO HARBORS    FAIR      54  32  43 S10       30.09F
SILVER BAY     FAIR      48  27  43 S9        30.09F
GRAND MARAIS     N/A     40  30  67 SW7       30.13F
G MARAIS ARPRT FAIR      39  18  41 S7        30.08F
$$
MNZ029>031-032-039>041-046>048-054>057-064-252000-
   West Central Minnesota

CITY           SKY/WX    TMP DP  RH WIND       PRES   REMARKS
FERGUS FALLS   FAIR      55  32  41 SW9G18    30.09F
WHEATON        SUNNY     57  28  33 S5        30.13F
MORRIS         SUNNY     55  32  41 SW5       30.13F
ALEXANDRIA     FAIR      54  29  38 SW9       30.14F
ELBOW LAKE     FAIR      54  32  43 W8        30.14F
WADENA         FAIR      54  30  40 SW9       30.11F
GLENWOOD       FAIR      54  28  37 W9        30.15F
APPLETON       SUNNY     55  27  33 W7        30.15F
BENSON         SUNNY     54  28  37 NW7       30.17F
ORTONVILLE     SUNNY     57  27  30 CALM      30.13F
WILLMAR        FAIR      52  36  54 W6        30.18F
$$
MNZ033>034-036-042>043-049>051-058-059-252000-
   Central Minnesota

CITY           SKY/WX    TMP DP  RH WIND       PRES   REMARKS
ST CLOUD       FAIR      54  24  31 SW5       30.14F
SAUK CENTRE    FAIR      52  29  40 W5        30.14F
PAYNESVILLE    FAIR      53  27  36 S5        30.15F
AITKIN         FAIR      52  21  30 CALM      30.10F
PINE RIVER     FAIR      52  27  37 SW6       30.13F
BRAINERD       FAIR      56  23  27 W9        30.12F
STAPLES        FAIR      55  25  30 S5        30.12F
LONG PRAIRIE   FAIR      52  28  40 S8        30.15F
LITTLE FALLS   FAIR      52  14  22 S7        30.14F
LITCHFIELD     FAIR      54  28  37 W3        30.16F
BUFFALO        FAIR      52  29  40 S3        30.16F
MAPLE LAKE     FAIR      54  27  35 CALM      30.17F
HUTCHINSON     FAIR      52  34  49 W7        30.17F
$$
MNZ037-044-045-052-053-252000-
   East Central Minnesota

CITY           SKY/WX    TMP DP  RH WIND       PRES   REMARKS
PRINCETON      FAIR      57  25  28 NW6       30.14F
MORA           FAIR      52  27  37 CALM      30.15F
CAMBRIDGE        N/A     55  34  44 SW3       30.14
RUSH CITY      FAIR      52  26  35 NW5       30.14F
MOOSE LAKE     FAIR      54  23  30 SW6       30.11F
HINCKLEY       FAIR      54  25  32 SW5       30.13F
CLOQUET        FAIR      54  12  19 NW5       30.10F
MCGREGOR       FAIR      54  23  30 SW8       30.12F
$$
MNZ071>073-080-081-089-090-097-098-252000-
   Southwest Minnesota

CITY           SKY/WX    TMP DP  RH WIND       PRES   REMARKS
MONTEVIDEO     SUNNY     57  36  44 NW7       30.16F
GRANITE FALLS  SUNNY     53  33  45 SW7       30.18F
CANBY          SUNNY     56  25  30 NW3       30.16F
MARSHALL       SUNNY     53  28  38 W5        30.17F
REDWOOD FALLS  SUNNY     52  32  46 W7        30.17F
OLIVIA         SUNNY     52  32  46 NW5       30.16F
PIPESTONE      SUNNY    N/A N/A N/A CALM      30.16F
WINDOM         SUNNY     54  27  35 N3        30.17F
WORTHINGTON    MOSUNNY   52  26  36 VRB3      30.17F
JACKSON        SUNNY     52  32  46 N3        30.16F
TRACY          SUNNY     53  33  46 CALM      30.16F
SLAYTON        SUNNY     51  29  42 CALM      30.18F
$$
MNZ065>067-074>077-082>085-091>093-252000-
   South Central Minnesota

CITY           SKY/WX    TMP DP  RH WIND       PRES   REMARKS
MANKATO        FAIR      52  32  46 N7        30.16F
NEW ULM        SUNNY     52  30  43 N5        30.16F
ST JAMES       SUNNY     52  36  54 W6        30.18F
FAIRMONT       SUNNY     51  35  54 NW6       30.17F
GLENCOE        FAIR      53  34  48 W5        30.15F
OWATONNA       FAIR      54  32  43 NW6       30.14F
WASECA         FAIR      52  32  46 CALM      30.16F
ALBERT LEA     FAIR      54  30  40 N7        30.14F
$$
MNZ078>079-086>088-094>096-252000-
   Southeast Minnesota

CITY           SKY/WX    TMP DP  RH WIND       PRES   REMARKS
ROCHESTER      FAIR      56  31  38 N9        30.14F
RED WING       FAIR      55  21  26 W5        30.13F
STANTON        FAIR      55  32  41 NE5       30.13F
DODGE CENTER   FAIR      52  28  40 N7        30.13F
WINONA         FAIR      55  32  41 NW5       30.11F
AUSTIN         FAIR      54  36  50 N3        30.13F
PRESTON        FAIR      54  29  37 N9        30.13F
$$
ABBREVIATIONS USED IN REMARKS
   TC - TEMPERATURES IN CELSIUS
  WCI - WIND CHILL INDEX
   HX - HEAT INDEX
  VSB - VISIBILITY
$$



USA.gov is the U.S. government's official web portal to all federal, state and local government web resources and services.